K7DC Weather Reports


time (UTC)temp
C
wind
direction
speed
KPH
gust
KPH
rain 1hr
cm
rain 24hr
cm
rain mn
cm
humidity
%
barometer
mb
20260506062224 15 125 0.0 0.0 0.00 0.46 0.46 53 1014.7
20260506061720 15 113 0.0 0.0 0.00 0.46 0.46 53 1014.8
20260506061218 15 81 0.0 1.6 0.00 0.46 0.46 53 1014.8
20260506060716 15 44 1.6 3.2 0.00 0.46 0.46 55 1014.8
20260506060213 15 90 3.2 3.2 0.00 0.46 0.46 52 1014.8
20260506051145 16 227 3.2 3.2 0.00 0.46 0.46 48 1014.2
20260506050643 16 247 3.2 4.8 0.00 0.46 0.46 47 1014.1
20260506050140 16 244 3.2 4.8 0.00 0.46 0.46 47 1014.1
20260506045133 16 319 1.6 4.8 0.00 0.46 0.46 45 1013.9
20260506044631 16 296 1.6 6.4 0.00 0.46 0.46 45 1013.9
20260506044128 16 309 4.8 6.4 0.00 0.46 0.46 45 1014.1
20260506043625 16 287 3.2 6.4 0.00 0.46 0.46 46 1014.0
20260506043123 16 285 0.0 3.2 0.00 0.46 0.46 47 1014.0
20260506042622 17 278 3.2 4.8 0.00 0.46 0.46 46 1013.9
20260506042119 17 271 1.6 6.4 0.00 0.46 0.46 46 1013.8
20260506041618 17 278 1.6 6.4 0.00 0.46 0.46 44 1013.7
20260506041114 17 279 1.6 3.2 0.00 0.46 0.46 43 1013.4
20260506040612 17 301 4.8 4.8 0.00 0.46 0.46 42 1013.4
20260506040108 17 288 3.2 4.8 0.00 0.46 0.46 43 1013.3
20260506035605 17 287 1.6 4.8 0.00 0.46 0.46 42 1013.3
20260506035102 17 317 1.6 4.8 0.00 0.46 0.46 40 1013.4
20260506034559 17 276 1.6 4.8 0.00 0.46 0.46 40 1013.2
20260506034056 17 256 3.2 6.4 0.00 0.46 0.46 39 1013.4
20260506033553 17 277 6.4 9.7 0.00 0.46 0.46 39 1013.2
20260506033050 18 327 1.6 4.8 0.00 0.46 0.46 39 1013.0
20260506032548 18 296 4.8 6.4 0.00 0.46 0.46 38 1013.0
20260506032044 18 308 4.8 9.7 0.00 0.46 0.46 38 1012.9
20260506031542 18 257 4.8 4.8 0.00 0.46 0.46 38 1012.8
20260506031038 18 277 3.2 9.7 0.00 0.46 0.46 37 1012.6
20260506030537 18 262 6.4 11.3 0.00 0.46 0.46 36 1012.7
20260506030034 18 270 9.7 11.3 0.00 0.46 0.46 36 1012.7
20260506025531 18 255 6.4 9.7 0.00 0.46 0.46 35 1012.6
20260506025027 18 258 8.0 9.7 0.00 0.46 0.46 35 1012.5
20260506024524 18 233 8.0 12.9 0.00 0.46 0.46 34 1012.4
20260506024020 19 275 8.0 11.3 0.00 0.46 0.46 33 1012.4
20260506023516 19 274 4.8 6.4 0.00 0.46 0.46 33 1012.2
20260506023014 19 249 3.2 6.4 0.00 0.46 0.46 33 1012.0
20260506022511 19 209 4.8 9.7 0.00 0.46 0.46 33 1012.0
20260506022008 20 251 8.0 11.3 0.00 0.46 0.46 32 1011.8
20260506021506 20 256 6.4 12.9 0.00 0.46 0.46 32 1011.6
20260506021003 20 276 4.8 6.4 0.00 0.46 0.46 33 1011.8
20260506020501 20 281 8.0 12.9 0.00 0.46 0.46 33 1011.4
20260506015957 20 295 1.6 12.9 0.00 0.46 0.46 32 1011.5
20260506015455 20 185 8.0 9.7 0.00 0.46 0.46 32 1011.5
20260506014952 20 256 4.8 22.5 0.00 0.46 0.46 31 1011.6
20260506014449 20 263 6.4 11.3 0.00 0.46 0.46 32 1011.5
20260506013945 20 181 6.4 14.5 0.00 0.46 0.46 31 1011.3
20260506013443 21 284 4.8 9.7 0.00 0.46 0.46 31 1011.3
20260506012939 21 293 3.2 6.4 0.00 0.46 0.46 31 1011.2
20260506012436 21 245 6.4 11.3 0.00 0.46 0.46 31 1011.2
20260506011933 21 238 6.4 20.9 0.00 0.46 0.46 31 1011.4
20260506011430 21 294 6.4 12.9 0.00 0.46 0.46 30 1011.3
20260506010927 21 269 11.3 14.5 0.00 0.46 0.46 30 1011.2
20260506010426 21 314 6.4 14.5 0.00 0.46 0.46 30 1011.1
20260506005921 22 235 11.3 16.1 0.00 0.46 0.46 30 1011.2
20260506005420 22 287 6.4 14.5 0.00 0.46 0.46 31 1011.2
20260506004914 22 240 6.4 9.7 0.00 0.46 0.46 31 1011.1
20260506004413 22 279 9.7 14.5 0.00 0.46 0.46 31 1010.9
20260506003908 22 267 6.4 11.3 0.00 0.46 0.46 32 1010.9
20260506003405 22 274 8.0 14.5 0.00 0.46 0.46 31 1010.6
20260506002902 22 255 8.0 14.5 0.00 0.46 0.46 31 1010.8
20260506002358 22 244 4.8 9.7 0.00 0.46 0.46 32 1010.7
20260506001853 22 240 8.0 14.5 0.00 0.46 0.46 31 1010.9
20260506001350 22 240 4.8 11.3 0.00 0.46 0.46 29 1010.7
20260506000847 22 258 8.0 11.3 0.00 0.46 0.46 29 1010.8
20260506000346 22 299 6.4 11.3 0.00 0.46 0.46 29 1010.7
20260505235842 23 220 6.4 11.3 0.00 0.46 0.46 29 1010.7
20260505235339 24 225 8.0 12.9 0.00 0.46 0.46 25 1010.6
20260505234836 23 225 8.0 16.1 0.00 0.46 0.46 26 1010.5
20260505234334 23 276 4.8 11.3 0.00 0.46 0.46 26 1010.4
20260505233831 23 253 6.4 16.1 0.00 0.46 0.46 25 1010.7
20260505233329 25 260 9.7 16.1 0.00 0.46 0.46 25 1010.4
20260505232826 25 283 8.0 12.9 0.00 0.46 0.46 23 1010.7
20260505232323 25 219 9.7 14.5 0.00 0.46 0.46 24 1010.7
20260505231820 25 249 9.7 17.7 0.00 0.46 0.46 23 1010.5
20260505231318 23 135 4.8 12.9 0.00 0.46 0.46 25 1010.5
20260505230816 23 284 6.4 16.1 0.00 0.46 0.46 25 1010.6
20260505230313 23 246 4.8 9.7 0.00 0.46 0.46 27 1010.6
20260505225809 24 276 12.9 16.1 0.00 0.46 0.46 25 1010.6
20260505225306 25 233 11.3 20.9 0.00 0.46 0.46 24 1010.8
20260505224801 25 179 6.4 14.5 0.00 0.46 0.46 23 1010.5
20260505224259 26 236 16.1 24.1 0.00 0.46 0.46 23 1010.7
20260505223757 25 277 9.7 16.1 0.00 0.46 0.46 23 1010.8
20260505223253 26 242 16.1 27.4 0.00 0.46 0.46 20 1010.8
20260505222749 26 251 8.0 17.7 0.00 0.46 0.46 21 1010.7
20260505222246 25 258 9.7 17.7 0.00 0.46 0.46 24 1010.9
20260505221743 25 260 8.0 11.3 0.00 0.46 0.46 26 1010.9
20260505221239 26 233 9.7 12.9 0.00 0.46 0.46 24 1011.1
20260505220736 26 231 11.3 29.0 0.00 0.46 0.46 25 1010.9
20260505220233 26 240 14.5 20.9 0.00 0.46 0.46 26 1010.8
20260505215732 25 277 9.7 14.5 0.00 0.46 0.46 26 1010.9
20260505215229 26 249 6.4 16.1 0.00 0.46 0.46 27 1011.2
20260505214726 25 253 8.0 16.1 0.00 0.46 0.46 28 1011.1
20260505214224 26 280 8.0 17.7 0.00 0.46 0.46 28 1011.2
20260505213721 25 286 3.2 12.9 0.00 0.46 0.46 29 1011.2
20260505213218 25 240 9.7 16.1 0.00 0.46 0.46 30 1011.4
20260505212714 26 263 9.7 16.1 0.00 0.46 0.46 28 1011.3
20260505212212 25 270 9.7 17.7 0.00 0.46 0.46 29 1011.3
20260505211708 26 291 9.7 20.9 0.00 0.46 0.46 28 1011.1
20260505211206 26 265 11.3 25.7 0.00 0.46 0.46 29 1011.5
20260505210702 25 246 12.9 24.1 0.00 0.46 0.46 30 1011.3
20260505210159 25 274 3.2 16.1 0.00 0.46 0.46 32 1011.4
20260505205656 25 272 6.4 20.9 0.00 0.46 0.46 32 1011.4
20260505205154 25 254 8.0 16.1 0.00 0.46 0.46 33 1011.3
20260505204651 25 279 6.4 14.5 0.00 0.46 0.46 33 1011.6
20260505204149 25 293 11.3 12.9 0.00 0.46 0.46 32 1011.3
20260505203646 25 268 14.5 17.7 0.00 0.46 0.46 32 1011.7
20260505203143 23 240 6.4 14.5 0.00 0.46 0.46 35 1011.6
20260505202638 25 219 14.5 17.7 0.00 0.46 0.46 33 1011.6
20260505202134 25 275 11.3 17.7 0.00 0.46 0.46 33 1011.6
20260505201631 24 259 6.4 11.3 0.00 0.46 0.46 35 1011.7
20260505201129 25 198 17.7 29.0 0.00 0.46 0.46 33 1011.6
20260505200627 24 255 4.8 17.7 0.00 0.46 0.46 37 1011.7
20260505200124 25 218 9.7 22.5 0.00 0.46 0.46 36 1011.9
20260505195620 25 242 6.4 16.1 0.00 0.46 0.46 34 1011.8
20260505195117 24 211 9.7 16.1 0.00 0.46 0.46 36 1011.8
20260505194614 25 41 8.0 16.1 0.00 0.46 0.46 36 1011.8
20260505194109 26 246 9.7 14.5 0.00 0.46 0.46 34 1011.6
20260505193607 25 224 8.0 16.1 0.00 0.46 0.46 34 1011.8
20260505193104 24 258 8.0 16.1 0.00 0.46 0.46 35 1011.9
20260505192603 24 242 4.8 11.3 0.00 0.46 0.46 36 1011.8
20260505192100 25 174 11.3 20.9 0.00 0.46 0.46 35 1011.9
20260505191558 24 205 11.3 16.1 0.00 0.46 0.46 37 1012.1
20260505191055 24 169 3.2 6.4 0.00 0.46 0.46 39 1011.9
20260505190550 25 155 1.6 9.7 0.00 0.46 0.46 38 1012.1
20260505190046 25 276 6.4 14.5 0.00 0.46 0.46 37 1012.4
20260505185543 25 233 6.4 12.9 0.00 0.46 0.46 40 1012.4
20260505185039 24 292 3.2 16.1 0.00 0.46 0.46 37 1012.4
20260505184536 24 220 6.4 14.5 0.00 0.46 0.46 39 1012.4
20260505184033 25 282 8.0 14.5 0.00 0.46 0.46 39 1012.4
20260505183530 24 211 3.2 11.3 0.00 0.46 0.46 39 1012.5
20260505183027 24 191 6.4 17.7 0.00 0.46 0.46 40 1012.4
20260505182523 23 135 6.4 12.9 0.00 0.46 0.46 43 1012.4
20260505182020 24 244 9.7 12.9 0.00 0.46 0.46 39 1012.6
20260505181517 23 108 6.4 9.7 0.00 0.46 0.46 41 1012.6
20260505181015 22 196 9.7 12.9 0.00 0.46 0.46 43 1012.7
20260505180510 22 116 6.4 12.9 0.00 0.46 0.46 46 1012.8
20260505180008 21 209 1.6 3.2 0.00 0.46 0.46 50 1012.8
20260505175503 21 94 3.2 3.2 0.00 0.46 0.46 52 1012.9
20260505175000 21 42 3.2 4.8 0.00 0.46 0.46 51 1013.0
20260505174457 21 358 1.6 3.2 0.00 0.46 0.46 53 1012.9
20260505173953 22 14 3.2 3.2 0.00 0.46 0.46 50 1012.8
20260505173450 21 72 1.6 1.6 0.00 0.46 0.46 53 1013.0
20260505172947 22 53 0.0 6.4 0.00 0.46 0.46 52 1013.0
20260505172445 22 343 3.2 11.3 0.00 0.46 0.46 51 1012.9
20260505171944 21 76 0.0 1.6 0.00 0.46 0.46 57 1013.0
20260505171441 21 106 0.0 1.6 0.00 0.46 0.46 57 1013.0
20260505170938 21 84 1.6 3.2 0.00 0.46 0.46 61 1013.2
20260505170435 20 112 3.2 3.2 0.00 0.46 0.46 59 1012.9
20260505165930 20 87 0.0 1.6 0.00 0.46 0.46 62 1012.9
20260505165426 20 1 0.0 4.8 0.00 0.46 0.46 63 1012.8
20260505164922 20 57 3.2 3.2 0.00 0.46 0.46 63 1013.1
20260505164419 20 40 6.4 9.7 0.00 0.46 0.46 62 1013.1
20260505163916 19 5 1.6 3.2 0.00 0.46 0.46 65 1013.1
20260505163416 19 53 4.8 11.3 0.00 0.46 0.46 65 1013.1
20260505162914 20 36 6.4 12.9 0.00 0.46 0.46 64 1013.0
20260505162409 20 14 1.6 3.2 0.00 0.46 0.46 68 1013.2
20260505161907 20 50 6.4 6.4 0.00 0.46 0.46 63 1013.2
20260505161403 20 46 0.0 6.4 0.00 0.46 0.46 67 1012.9
20260505160901 19 336 3.2 6.4 0.00 0.46 0.46 68 1013.1
20260505160359 18 30 0.0 3.2 0.00 0.46 0.46 73 1013.3
20260505153337 16 8 0.0 3.2 0.00 0.46 0.46 80 1013.0
20260505152835 16 51 1.6 3.2 0.00 0.46 0.46 79 1013.1
20260505152332 16 57 0.0 3.2 0.00 0.46 0.46 80 1013.0
20260505151831 17 37 3.2 4.8 0.00 0.46 0.46 78 1013.1
20260505151328 17 116 0.0 0.0 0.00 0.46 0.46 77 1013.2
20260505150826 16 116 1.6 1.6 0.00 0.46 0.46 77 1013.0
20260505150323 16 115 1.6 3.2 0.00 0.46 0.46 79 1013.0
20260505140253 15 135 0.0 0.0 0.00 0.46 0.46 85 1012.7
20260505130217 13 137 0.0 1.6 0.00 0.46 0.46 89 1011.9
20260505124706 13 253 0.0 0.0 0.00 0.46 0.46 87 1011.9
20260505124203 13 253 0.0 1.6 0.00 0.46 0.46 87 1011.6
20260505123659 13 254 0.0 1.6 0.00 0.46 0.46 87 1011.3
20260505123156 13 195 1.6 3.2 0.00 0.46 0.46 87 1011.7
20260505122653 14 165 1.6 3.2 0.00 0.46 0.46 87 1011.7
20260505122150 14 267 1.6 3.2 0.00 0.46 0.46 87 1011.6
20260505121647 14 226 1.6 3.2 0.00 0.46 0.46 88 1011.8
20260505121143 14 238 0.0 3.2 0.00 0.46 0.46 87 1011.3
20260505120640 14 229 0.0 4.8 0.00 0.46 0.46 87 1011.7
20260505120136 14 229 1.6 4.8 0.00 0.46 0.46 87 1011.8
20260505115635 14 231 1.6 4.8 0.00 0.46 0.46 86 1011.7
20260505115133 14 263 4.8 4.8 0.00 0.46 0.46 86 1011.4
20260505114630 13 293 1.6 4.8 0.00 0.46 0.46 89 1011.4
20260505114126 13 12 0.0 1.6 0.00 0.46 0.46 92 1011.6
20260505113623 13 16 1.6 1.6 0.00 0.46 0.46 91 1011.1
20260505113120 13 47 0.0 0.0 0.00 0.46 0.46 93 1011.4
20260505112616 13 47 0.0 0.0 0.00 0.46 0.46 94 1011.7
20260505112114 13 47 0.0 1.6 0.00 0.46 0.46 93 1011.5
20260505111608 13 240 1.6 1.6 0.00 0.46 0.46 92 1011.5
20260505111104 13 237 0.0 0.0 0.00 0.46 0.46 92 1011.8
20260505110601 13 237 0.0 0.0 0.00 0.46 0.46 92 1012.1
20260505102033 13 171 0.0 0.0 0.00 0.46 0.46 94 1011.8
20260505101532 13 171 1.6 1.6 0.13 0.46 0.46 94 1012.1
20260505101027 13 171 0.0 1.6 0.13 0.46 0.46 94 1012.4
20260505100525 13 172 0.0 1.6 0.00 0.43 0.43 93 1012.2
20260505100022 13 172 0.0 0.0 0.00 0.43 0.43 93 1012.4
20260505095517 13 172 1.6 3.2 0.00 0.43 0.43 92 1012.8
20260505095014 13 171 1.6 3.2 0.00 0.43 0.43 93 1012.9
20260505094511 14 149 1.6 1.6 0.00 0.43 0.43 93 1012.9
20260505094007 14 138 3.2 3.2 0.00 0.43 0.43 93 1012.8
20260505093503 14 166 1.6 4.8 0.00 0.43 0.43 93 1013.2
20260505093000 14 119 3.2 4.8 0.00 0.43 0.43 93 1013.0
20260505092458 14 101 3.2 4.8 0.00 0.43 0.43 93 1012.9
20260505091955 14 143 3.2 3.2 0.00 0.43 0.43 93 1013.3
20260505091453 14 163 1.6 4.8 0.18 0.43 0.43 93 1013.4
20260505090951 14 134 4.8 9.7 0.00 0.41 0.41 93 1013.5
20260505090449 14 146 3.2 4.8 0.00 0.41 0.41 94 1013.9
20260505085946 14 138 1.6 4.8 0.13 0.41 0.41 94 1013.7
20260505085444 14 112 1.6 3.2 0.13 0.41 0.41 94 1014.1
20260505084942 14 136 3.2 6.4 0.00 0.38 0.38 94 1014.0
20260505084440 14 122 3.2 3.2 0.18 0.38 0.38 94 1014.4
20260505083937 14 151 1.6 4.8 0.18 0.38 0.38 94 1014.4
20260505083434 14 126 3.2 4.8 0.00 0.36 0.36 94 1014.5
20260505082931 14 107 3.2 3.2 0.13 0.36 0.36 94 1014.7
20260505082426 14 117 1.6 4.8 0.13 0.36 0.36 93 1014.7
20260505081924 14 136 1.6 1.6 0.00 0.33 0.33 93 1015.0
20260505081421 14 120 1.6 4.8 0.18 0.33 0.33 93 1015.1
20260505080917 14 122 1.6 4.8 0.18 0.33 0.33 93 1015.3
20260505080413 14 115 1.6 3.2 0.13 0.30 0.30 93 1015.5
20260505075909 14 114 1.6 1.6 0.13 0.30 0.30 94 1015.4
20260505075406 14 113 1.6 1.6 0.18 0.28 0.28 93 1015.4
20260505074903 14 102 1.6 1.6 0.18 0.28 0.28 93 1015.5
20260505074400 14 118 3.2 3.2 0.13 0.25 0.25 93 1015.4
20260505073857 14 121 0.0 1.6 0.30 0.25 0.25 94 1015.6
20260505073355 14 117 0.0 1.6 0.48 0.23 0.23 93 1015.5
20260505072852 14 152 1.6 1.6 0.48 0.20 0.20 93 1015.7
20260505072348 14 122 1.6 3.2 0.48 0.15 0.15 93 1015.5
20260505071844 14 141 1.6 3.2 0.30 0.10 0.10 93 1015.6
20260505071341 14 99 0.0 1.6 0.30 0.08 0.08 92 1015.5
20260505070839 14 111 1.6 3.2 0.30 0.03 0.03 93 1015.6
20260505070335 14 66 0.0 0.0 0.30 0.00 0.00 93 1015.4
20260505065830 14 66 0.0 0.0 0.43 0.43 0.43 93 1015.5
20260505065327 14 66 1.6 1.6 0.30 0.38 0.38 93 1015.9
20260505064825 14 66 0.0 0.0 0.36 0.36 0.36 92 1015.7
20260505064321 14 66 0.0 0.0 0.30 0.33 0.33 92 1015.4
20260505063820 14 70 1.6 1.6 0.30 0.30 0.30 92 1015.4